STARLINK-34595, 64749

Orbit data source: Space-Track

STARLINK-34595, 64749 is a payload satellite owned by SpaceX/Seattle (US) in LEO that was launched on Wed, 02 Jul 2025 UTC via an FALCON 9 launch vehicle from the Air Force Eastern Test Range (AFETR). Payload-class satellites include a variety of spacecraft equipped with specific instruments for various scientific and technological missions. These include communications satellites like Starlink; space stations such as the ISS; scientific satellites like the Hubble; Earth observation satellites from companies like Planet Labs, Umbra, and HawkEye 360; GPS; miniature CubeSats for education and research; and military/defense satellites.

Loading next visibility...
Identifier
64749, 2025-144AB
Orbit
LEO
Last TLE update
14 hours ago
Origin
Manufacturer
SpaceX/Seattle
Mission
Operational spacecraft
Bus & Motor
STARLINK V2MO, Unknown motor
Mass
575 kg wet, ~530 kg dry
Launch date (UTC)
2025-07-02 (1 week ago)
Launch vehicle
FALCON 9
Launch site
Air Force Eastern Test Range (AFETR)
Object type
Payload
Rocket body
Debris
Shape & HBR
Unknown
Radar Cross Section
RCS unknown

Expand to show TLE details & history

TLE from 14 hours ago
0 STARLINK-34595
1 64749U 25144AB  25191.66668981 -.01303693  00000-0 -51487-2 0  9998
2 64749  53.1534 231.6654 0000866  84.0615  37.6632 15.88639064  2575
Epoch: 2025-07-10T16:00Z
TLE epoch observation values (Epoch: 2025-07-10T16:00:01.999Z)
Latitude
43.03313°
Longitude
-161.25179°
Altitude
309.869 km
Speed
7.728 km/s
True Right ascension
00h 30m 20s
True Declination
42° 51' 00"
Sunlit
Object was in daylight at epoch
Visualization orbit readout
Latitude
-18.81246°
Longitude
-105.40931°
Altitude
316.218 km
Speed
7.718 km/s
Apparent Right ascension
05h 05m 45s
Apparent Declination
-29° 46' 57"
Sunlit
Object is in daylight
Visualization observer readout
Local Sidereal Time
18:13:30
Azimuth
59.022° ENE
Elevation
-72.848°
Doppler factor
1
Orbital elements
Apogee altitude
306.94 km
Perigee altitude
305.783 km
Semi-major axis
6,684.498 km
Eccentricity
0.00009
Inclination
53.1534°
RAAN
231.6654°
Arg. of periapsis
84.0615°
True anomaly
Unknown
Mean anomaly
37.6632°
Eccentric anomaly
Unknown
Mean motion
3.97137 °/min
Orbital period
90.65 mins
BSTAR
-0.0051487
Loading maneuver chart data...
Loading SW <> Apogee altitude chart data...
Loading historical data...
Loading historical data...
Loading historical data...
Loading historical data...
Loading historical data...
Loading historical data...
Loading historical data...

STARLINK-34595 Visibility forecast

Observer location: undefined°, undefined°

Span
Click to sort rows by Start time (UTC) header in descending order
Start Az.
Max El. time (UTC)
Max El. Az.
Max El.
End time (UTC)
End Az.
4 mins2025-07-12 05:29:22.095Z250.958° W2025-07-12 05:31:22.095Z315.589° NNW35.418°2025-07-12 05:33:22.095Z34.157° NE
|